Index of /pub/NetBSD/NetBSD-release-8/src/share/man/man4/man4.i386

[ICO]NameLast modifiedSizeDescription

[PARENTDIR]Parent Directory  -  
[   ]io.42002-01-15 10:42 2.4K 
[   ]geodecntr.42009-05-28 04:24 1.9K 
[   ]rdcpcib.42011-04-05 02:26 2.0K 
[   ]apm.42011-04-05 17:24 7.3K 
[   ]console.42011-04-05 17:24 3.1K 
[   ]spic.42011-04-05 17:24 2.3K 
[   ]cmos.42014-03-19 03:20 3.6K 
[   ]viac7temp.42014-03-19 03:20 1.8K 
[   ]Makefile2017-01-03 17:49 430  
[   ]autoconf.42017-02-18 07:24 2.6K 
[   ]elanpar.42017-02-18 07:24 2.8K 
[   ]elanpex.42017-02-18 07:24 2.9K 
[   ]gcscide.42017-02-18 07:24 2.0K 
[   ]gcscpcib.42017-02-18 07:24 1.2K 
[   ]geodewdog.42017-02-18 07:24 2.1K 
[   ]glxsb.42017-02-18 07:24 1.9K 
[   ]gscpcib.42017-02-18 07:24 1.9K 
[   ]lms.42017-02-18 07:24 2.3K 
[   ]mms.42017-02-18 07:24 2.3K 
[   ]pnpbios.42017-02-18 07:24 3.1K 
[   ]rdcide.42017-02-18 07:24 2.0K 
[   ]elansc.42017-02-19 07:39 4.1K 
[   ]intro.42019-09-04 12:08 8.4K 
[   ]ndis.42019-09-04 12:08 6.7K 
[   ]pcibios.42019-09-04 12:08 5.3K